When you browse on this site, cookies collect data to enhance your experience and personalize the content and advertising you see.
Visit our Privacy Policy to learn more. By continuing to use the site, you agree to this use of cookies and data.
  • Em Portugal
  • Lista de países
  • Para 7 dias
  • Temperatura da água
  • Mapas de satélite
  • Mapa do tempo
  • Widgets de tempo
  • user-avatar
    Iniciar Sessão

    Previsão horária em Petrovo

    Hoje, 24 Março, Domingo

    Tempo Temperatura Precipitação Vento Pressão Humidade
    00:00 +4°C° 0 mm 3 m/s 748 mmHg 60%
    01:00 +4°C° 0 mm 3 m/s 748 mmHg 66%
    02:00 +4°C° 0 mm 3 m/s 747 mmHg 71%
    03:00 +4°C° 0 mm 3 m/s 747 mmHg 76%
    04:00 +4°C° 0 mm 4 m/s 747 mmHg 80%
    05:00 +4°C° 0 mm 4 m/s 747 mmHg 84%
    06:00 +4°C° 0 mm 4 m/s 747 mmHg 83%
    07:00 +2°C° 0 mm 5 m/s 747 mmHg 82%
    08:00 +2°C° 0 mm 5 m/s 747 mmHg 80%
    09:00 +3°C° 0 mm 5 m/s 747 mmHg 71%
    10:00 +5°C° 0 mm 5 m/s 747 mmHg 62%
    11:00 +6°C° 0 mm 5 m/s 747 mmHg 53%
    12:00 +7°C° 0 mm 5 m/s 747 mmHg 50%
    13:00 +7°C° 0 mm 5 m/s 747 mmHg 46%
    14:00 +8°C° 0 mm 5 m/s 747 mmHg 43%
    15:00 +7°C° 0 mm 5 m/s 747 mmHg 44%
    16:00 +7°C° 0 mm 5 m/s 746 mmHg 45%
    17:00 +7°C° 0 mm 4 m/s 746 mmHg 47%
    18:00 +5°C° 0 mm 4 m/s 746 mmHg 52%
    19:00 +4°C° 0 mm 3 m/s 746 mmHg 58%
    20:00 +4°C° 0 mm 2 m/s 746 mmHg 63%
    21:00 +4°C° 0 mm 2 m/s 746 mmHg 67%
    22:00 +3°C° 0 mm 2 m/s 746 mmHg 70%
    23:00 +2°C° 0 mm 2 m/s 745 mmHg 73%

    Amanhã, 25 Março, Segunda-feira

    Tempo Temperatura Precipitação Vento Pressão Humidade
    00:00 +2°C° 0 mm 2 m/s 745 mmHg 75%
    01:00 +2°C° 0 mm 1 m/s 745 mmHg 76%
    02:00 +2°C° 0 mm 1 m/s 745 mmHg 78%
    03:00 +2°C° 0 mm 1 m/s 744 mmHg 78%
    04:00 +2°C° 0 mm 1 m/s 744 mmHg 79%
    05:00 +1°C° 0 mm 1 m/s 743 mmHg 79%
    06:00 +2°C° 0 mm 1 m/s 743 mmHg 76%
    07:00 +2°C° 0 mm 1 m/s 742 mmHg 72%
    08:00 +2°C° 0 mm 2 m/s 742 mmHg 69%
    09:00 +3°C° 0 mm 2 m/s 742 mmHg 61%
    10:00 +5°C° 0 mm 2 m/s 742 mmHg 53%
    11:00 +5°C° 0 mm 3 m/s 741 mmHg 46%
    12:00 +7°C° 0 mm 3 m/s 741 mmHg 45%
    13:00 +7°C° 0 mm 3 m/s 741 mmHg 44%
    14:00 +8°C° 0 mm 3 m/s 740 mmHg 43%
    15:00 +8°C° 0 mm 2 m/s 740 mmHg 45%
    16:00 +7°C° 0 mm 2 m/s 740 mmHg 47%
    17:00 +7°C° 0 mm 2 m/s 740 mmHg 49%
    18:00 +6°C° 0.1 mm 2 m/s 740 mmHg 57%
    19:00 +5°C° 0.1 mm 2 m/s 740 mmHg 64%
    20:00 +4°C° 0.1 mm 2 m/s 740 mmHg 71%
    21:00 +4°C° 0.2 mm 2 m/s 740 mmHg 72%
    22:00 +4°C° 0.2 mm 2 m/s 740 mmHg 74%
    23:00 +3°C° 0.2 mm 2 m/s 740 mmHg 75%

    Depois de amanhã, 26 Março, Terça-feira

    Tempo Temperatura Precipitação Vento Pressão Humidade
    00:00 +3°C° 0 mm 2 m/s 740 mmHg 79%
    01:00 +1°C° 0 mm 3 m/s 740 mmHg 83%
    02:00 0°C° 0 mm 3 m/s 741 mmHg 87%
    03:00 -1°C° 0 mm 4 m/s 741 mmHg 84%
    04:00 -1°C° 0 mm 5 m/s 741 mmHg 81%
    05:00 -1°C° 0 mm 5 m/s 742 mmHg 79%
    06:00 -1°C° 0 mm 5 m/s 742 mmHg 76%
    07:00 -2°C° 0 mm 5 m/s 742 mmHg 74%
    08:00 -4°C° 0 mm 5 m/s 743 mmHg 71%
    09:00 -1°C° 0 mm 5 m/s 743 mmHg 64%
    10:00 0°C° 0 mm 5 m/s 743 mmHg 56%
    11:00 +1°C° 0 mm 5 m/s 743 mmHg 48%
    12:00 +2°C° 0 mm 6 m/s 742 mmHg 49%
    13:00 +2°C° 0 mm 6 m/s 741 mmHg 49%
    14:00 +2°C° 0 mm 7 m/s 741 mmHg 50%
    15:00 +1°C° 0.6 mm 6 m/s 740 mmHg 60%
    16:00 0°C° 0.6 mm 5 m/s 740 mmHg 70%
    17:00 0°C° 0.6 mm 4 m/s 739 mmHg 80%
    18:00 -1°C° 0.5 mm 5 m/s 739 mmHg 81%
    19:00 -3°C° 0.5 mm 6 m/s 740 mmHg 83%
    20:00 -4°C° 0.5 mm 6 m/s 740 mmHg 85%
    21:00 -4°C° 0.5 mm 7 m/s 741 mmHg 84%
    22:00 -4°C° 0.5 mm 7 m/s 741 mmHg 83%
    23:00 -4°C° 0.5 mm 7 m/s 742 mmHg 82%

    27 Março, Quarta-feira

    Tempo Temperatura Precipitação Vento Pressão Humidade
    00:00 -4°C° 0 mm 7 m/s 743 mmHg 83%
    01:00 -5°C° 0 mm 6 m/s 744 mmHg 84%
    02:00 -5°C° 0 mm 6 m/s 745 mmHg 85%
    03:00 -6°C° 0 mm 5 m/s 746 mmHg 86%
    04:00 -6°C° 0 mm 5 m/s 746 mmHg 88%
    05:00 -7°C° 0 mm 5 m/s 747 mmHg 89%
    06:00 -6°C° 0 mm 5 m/s 748 mmHg 87%
    07:00 -6°C° 0 mm 5 m/s 749 mmHg 84%
    08:00 -5°C° 0 mm 5 m/s 749 mmHg 81%
    09:00 -4°C° 0 mm 5 m/s 750 mmHg 75%
    10:00 -2°C° 0 mm 5 m/s 750 mmHg 69%
    11:00 -1°C° 0 mm 5 m/s 750 mmHg 63%
    12:00 0°C° 0 mm 5 m/s 751 mmHg 59%
    13:00 0°C° 0 mm 5 m/s 751 mmHg 56%
    14:00 +1°C° 0 mm 5 m/s 751 mmHg 52%
    15:00 +1°C° 0 mm 4 m/s 751 mmHg 53%
    16:00 +1°C° 0 mm 4 m/s 752 mmHg 54%
    17:00 +2°C° 0 mm 3 m/s 752 mmHg 55%
    18:00 0°C° 0 mm 3 m/s 752 mmHg 61%
    19:00 -1°C° 0 mm 2 m/s 753 mmHg 67%
    20:00 -1°C° 0 mm 1 m/s 753 mmHg 73%
    21:00 -1°C° 0 mm 1 m/s 754 mmHg 73%
    22:00 -1°C° 0 mm 1 m/s 754 mmHg 74%
    23:00 -1°C° 0 mm 1 m/s 754 mmHg 75%

    28 Março, Quinta-feira

    Tempo Temperatura Precipitação Vento Pressão Humidade
    00:00 -1°C° 0 mm 1 m/s 754 mmHg 74%
    01:00 -2°C° 0 mm 1 m/s 755 mmHg 74%
    02:00 -2°C° 0 mm 1 m/s 755 mmHg 74%
    03:00 -2°C° 0 mm 1 m/s 755 mmHg 73%
    04:00 -2°C° 0 mm 1 m/s 756 mmHg 73%
    05:00 -2°C° 0 mm 1 m/s 756 mmHg 73%
    06:00 -2°C° 0 mm 0 m/s 756 mmHg 69%
    07:00 -1°C° 0 mm 0 m/s 757 mmHg 65%
    08:00 0°C° 0 mm 0 m/s 757 mmHg 61%
    09:00 +2°C° 0 mm 0 m/s 757 mmHg 54%
    10:00 +3°C° 0 mm 0 m/s 757 mmHg 48%
    11:00 +5°C° 0 mm 0 m/s 757 mmHg 42%
    12:00 +6°C° 0 mm 1 m/s 757 mmHg 40%
    13:00 +7°C° 0 mm 1 m/s 757 mmHg 37%
    14:00 +7°C° 0 mm 1 m/s 757 mmHg 35%
    15:00 +7°C° 0 mm 1 m/s 757 mmHg 40%
    16:00 +7°C° 0 mm 1 m/s 757 mmHg 46%
    17:00 +7°C° 0 mm 1 m/s 756 mmHg 51%
    18:00 +5°C° 0 mm 1 m/s 756 mmHg 56%
    19:00 +4°C° 0 mm 1 m/s 756 mmHg 61%
    20:00 +2°C° 0 mm 1 m/s 756 mmHg 67%
    21:00 +1°C° 0 mm 2 m/s 756 mmHg 70%
    22:00 +1°C° 0 mm 2 m/s 756 mmHg 74%
    23:00 +1°C° 0 mm 2 m/s 756 mmHg 77%

    29 Março, Sexta-feira

    Tempo Temperatura Precipitação Vento Pressão Humidade
    00:00 +1°C° 0 mm 2 m/s 756 mmHg 82%
    01:00 +1°C° 0 mm 2 m/s 756 mmHg 86%
    02:00 +1°C° 0 mm 2 m/s 756 mmHg 91%
    03:00 +1°C° 0 mm 2 m/s 756 mmHg 93%
    04:00 -1°C° 0 mm 2 m/s 756 mmHg 95%
    05:00 -1°C° 0 mm 2 m/s 755 mmHg 97%
    06:00 0°C° 0 mm 3 m/s 755 mmHg 94%
    07:00 +1°C° 0 mm 3 m/s 755 mmHg 91%
    08:00 +1°C° 0 mm 4 m/s 755 mmHg 88%
    09:00 +4°C° 0 mm 4 m/s 755 mmHg 81%
    10:00 +6°C° 0 mm 4 m/s 755 mmHg 74%
    11:00 +7°C° 0 mm 4 m/s 754 mmHg 67%
    12:00 +8°C° 0 mm 4 m/s 754 mmHg 65%
    13:00 +10°C° 0 mm 4 m/s 754 mmHg 62%
    14:00 +11°C° 0 mm 4 m/s 753 mmHg 60%
    15:00 +11°C° 0 mm 4 m/s 753 mmHg 61%
    16:00 +11°C° 0 mm 4 m/s 752 mmHg 61%
    17:00 +11°C° 0 mm 3 m/s 752 mmHg 62%
    18:00 +9°C° 0 mm 3 m/s 752 mmHg 68%
    19:00 +8°C° 0 mm 3 m/s 752 mmHg 74%
    20:00 +5°C° 0 mm 3 m/s 752 mmHg 80%
    21:00 +5°C° 0 mm 3 m/s 752 mmHg 83%
    22:00 +5°C° 0 mm 3 m/s 752 mmHg 87%
    23:00 +5°C° 0 mm 3 m/s 752 mmHg 90%
    Mostrar mais